Showing default

GEESAT 1-02, 52786

Orbit data source: Space-Track

GEESAT 1-02, 52786 is a payload satellite owned by GeeSpace (CN) in LEO that was launched on Thu, 02 Jun 2022 UTC via a CHANG ZHENG 2C launch vehicle from the Xichang Space Center, China (XSC). Payload-class satellites include a variety of spacecraft equipped with specific instruments for various scientific and technological missions. These include communications satellites like Starlink; space stations such as the ISS; scientific satellites like the Hubble; Earth observation satellites from companies like Planet Labs, Umbra, and HawkEye 360; GPS; miniature CubeSats for education and research; and military/defense satellites.

Loading next visibility...
Identifier
52786, 2022-058B
Orbit
LEO
Country
Flag of CNCN / PRC
Related business
Manufacturer
GWCG
Mission
Operational Commercial Navigation
Bus & Motor
GPS100, Unknown motor
Mass
130 kg wet, 130 kg dry
Launch date (UTC)
2022-06-02 (4 years ago)
Launch vehicle
CHANG ZHENG 2C
Launch site
Xichang Space Center, China (XSC)
Object type
Payload
Rocket body
Debris
Shape & HBR
Box + 2 Pan, 1.0 m
Radar Cross Section
0.833 m², Large (>1 m²)

Expand to show TLE details & history
Last TLE update: 2 days ago

TLE from 2 days ago
0 GEESAT 1-02
1 52786U 22058B   26171.44128308  .00000932  00000-0  14604-3 0  9994
2 52786  49.9994 187.7356 0023444 264.5747  95.2516 14.81395555220416
Epoch: 2026-06-20T10:35Z
TLE epoch observation values (Epoch: 2026-06-20T10:35:26.858Z)
Latitude
0.00001°
Longitude
120.21784°
Altitude
627.007 km
Speed
7.546 km/s
True Right ascension
12h 30m 56s
True Declination
0° 00' 00"
Sunlit
Object was in daylight at epoch
Visualization orbit readout
Latitude
Unknown
Longitude
Unknown
Altitude
Unknown
Speed
Unknown
Apparent Right ascension
Unknown
Apparent Declination
Unknown
Sunlit
N/A
Visualization observer readout
Local Sidereal Time
21:52:40
Azimuth
Unknown
Elevation
Unknown
Doppler factor
Unknown
Orbital elements
Apogee altitude
642.1 km
Perigee altitude
609.26 km
Semi-major axis
7,003.817 km
Eccentricity
0.00234
Inclination
49.9994°
RAAN
187.7356°
Arg. of periapsis
264.5747°
True anomaly
95.51905°
Mean anomaly
95.2516°
Eccentric anomaly
95.38533°
Mean motion
3.70289 °/min
Orbital period
97.22 mins
BSTAR
0.00014604
Loading maneuver chart data...
Computing Atmospheric mass density...
Loading historical data...
Loading historical data...
Loading historical data...
Loading historical data...
Loading historical data...
Loading historical data...
Loading historical data...

Documentation

Showing up to 5 results
|